Date String (YYYY-MM-DD hh:mm:ss) UTC,Instrument flags,Ambient pressure (hPa),Sample flow (lpm),Bypass flow (lpm),Sample temperature (°C),Ambient temperature (°C),ASC tube jacket temperature (°C),LED temperature (°C),Box temperature (°C),Sample RH (%),Span deviation,Mass concentration (μg/m³),Mass concentration (μg/m³),Mass concentration (μg/m³)
DateTimeUTC,F1_M11,P_M11,Q1_M11,Q2_M11,T1_M11,T2_M11,T3_M11,T4_M11,T5_M11,U1_M11,ZSPAN_M11,X0_M11,X2_M11,X1_M11
2022-04-24 21:00:00,,0828.0,5.00,0.00,25.3,24.6,00.0,34.2,27.1,14.2,0000.0,0003.45,0001.15,0000.74
2022-04-24 21:01:00,,0827.9,5.00,0.00,25.3,24.6,00.0,34.2,27.1,14.3,0000.0,0003.30,0001.14,0000.74
2022-04-24 21:02:00,,0827.9,4.99,0.00,25.3,24.6,00.0,34.2,27.1,13.9,0000.0,0003.17,0001.09,0000.75
2022-04-24 21:03:00,,0828.0,4.99,0.00,25.3,24.6,00.0,34.2,27.1,13.2,0000.0,0003.66,0001.07,0000.75
2022-04-24 21:04:00,,0827.9,5.00,0.00,25.3,24.6,00.0,34.2,27.2,13.1,0000.0,0003.81,0001.13,0000.76
2022-04-24 21:05:00,,0828.1,5.00,0.00,25.3,24.6,00.0,34.2,27.2,13.0,0000.0,0003.82,0001.16,0000.76
2022-04-24 21:06:00,,0828.0,5.01,0.00,25.3,24.6,00.0,34.2,27.2,13.4,0000.0,0003.55,0001.13,0000.76
2022-04-24 21:07:00,,0828.2,4.99,0.00,25.4,24.6,00.0,34.2,27.2,13.4,0000.0,0003.04,0001.14,0000.77
2022-04-24 21:08:00,,0828.3,5.00,0.00,25.4,24.7,00.0,34.2,27.2,13.9,0000.0,0002.68,0001.13,0000.77
2022-04-24 21:09:00,,0827.9,5.00,0.00,25.4,24.7,00.0,34.2,27.2,14.2,0000.0,0002.79,0001.13,0000.77
2022-04-24 21:10:00,,0828.0,5.00,0.00,25.4,24.7,00.0,34.2,27.2,14.0,0000.0,0002.95,0001.16,0000.77
2022-04-24 21:11:00,,0828.1,4.99,0.00,25.4,24.7,00.0,34.2,27.2,14.0,0000.0,0002.90,0001.18,0000.78
2022-04-24 21:12:00,,0827.9,5.01,0.00,25.4,24.7,00.0,34.3,27.3,13.9,0000.0,0003.17,0001.22,0000.78
2022-04-24 21:13:00,,0828.0,5.02,0.00,25.4,24.7,00.0,34.3,27.3,13.9,0000.0,0003.23,0001.23,0000.77
2022-04-24 21:14:00,,0828.0,5.00,0.00,25.4,24.7,00.0,34.3,27.3,14.3,0000.0,0002.67,0001.22,0000.76
2022-04-24 21:15:00,,0828.0,5.00,0.00,25.5,24.7,00.0,34.3,27.3,14.4,0000.0,0002.58,0001.18,0000.75
2022-04-24 21:16:00,,0828.0,5.00,0.00,25.5,24.8,00.0,34.3,27.3,14.0,0000.0,0002.58,0001.17,0000.75
2022-04-24 21:17:00,,0827.9,5.00,0.00,25.5,24.8,00.0,34.3,27.3,14.3,0000.0,0002.71,0001.22,0000.75
2022-04-24 21:18:00,,0827.9,4.99,0.00,25.5,24.8,00.0,34.3,27.3,13.9,0000.0,0002.81,0001.29,0000.76
2022-04-24 21:19:00,,0827.9,5.00,0.00,25.5,24.8,00.0,34.3,27.3,14.0,0000.0,0003.63,0001.29,0000.78
2022-04-24 21:20:00,,0827.9,5.01,0.00,25.5,24.8,00.0,34.3,27.3,13.8,0000.0,0003.84,0001.31,0000.79
2022-04-24 21:21:00,,0827.9,5.00,0.00,25.5,24.7,00.0,34.3,27.2,14.2,0000.0,0003.85,0001.35,0000.81
2022-04-24 21:22:00,,0827.9,4.99,0.00,25.5,24.7,00.0,34.4,27.3,14.6,0000.0,0004.00,0001.38,0000.82
2022-04-24 21:23:00,,0828.0,4.99,0.00,25.5,24.7,00.0,34.4,27.3,14.5,0000.0,0004.15,0001.36,0000.83
2022-04-24 21:24:00,,0827.9,5.01,0.00,25.5,24.7,00.0,34.4,27.3,14.6,0000.0,0004.15,0001.39,0000.86
2022-04-24 21:25:00,,0827.9,4.99,0.00,25.5,24.7,00.0,34.4,27.3,14.4,0000.0,0004.24,0001.42,0000.88
2022-04-24 21:26:00,,0827.9,4.99,0.00,25.5,24.7,00.0,34.4,27.2,14.8,0000.0,0004.30,0001.46,0000.91
2022-04-24 21:27:00,,0827.9,5.00,0.00,25.5,24.7,00.0,34.4,27.3,15.6,0000.0,0004.45,0001.54,0000.96
2022-04-24 21:28:00,,0827.9,5.02,0.00,25.5,24.7,00.0,34.4,27.3,15.5,0000.0,0005.36,0001.58,0001.01
2022-04-24 21:29:00,,0827.9,4.99,0.00,25.5,24.7,00.0,34.4,27.2,15.2,0000.0,0005.68,0001.58,0001.05
2022-04-24 21:30:00,,0828.0,4.99,0.00,25.5,24.7,00.0,34.4,27.2,15.1,0000.0,0005.33,0001.59,0001.09
2022-04-24 21:31:00,,0827.9,5.00,0.00,25.5,24.7,00.0,34.4,27.2,15.3,0000.0,0005.45,0001.62,0001.12
2022-04-24 21:32:00,,0827.9,5.01,0.00,25.5,24.6,00.0,34.4,27.2,15.7,0000.0,0005.49,0001.66,0001.15
2022-04-24 21:33:00,,0827.9,4.99,0.00,25.5,24.6,00.0,34.4,27.2,15.2,0000.0,0005.43,0001.66,0001.17
2022-04-24 21:34:00,,0827.9,4.99,0.00,25.5,24.6,00.0,34.4,27.2,15.1,0000.0,0004.79,0001.64,0001.19
2022-04-24 21:35:00,,0828.0,4.98,0.00,25.5,24.6,00.0,34.4,27.1,15.9,0000.0,0004.79,0001.67,0001.21
2022-04-24 21:36:00,,0827.9,5.01,0.00,25.5,24.6,00.0,34.4,27.1,15.9,0000.0,0005.09,0001.74,0001.24
2022-04-24 21:37:00,,0827.9,4.99,0.00,25.5,24.6,00.0,34.4,27.2,15.7,0000.0,0007.34,0001.81,0001.26
2022-04-24 21:38:00,,0827.9,4.99,0.00,25.5,24.6,00.0,34.4,27.1,15.8,0000.0,0008.07,0001.86,0001.27
2022-04-24 21:39:00,,0828.0,4.99,0.00,25.5,24.6,00.0,34.4,27.1,15.8,0000.0,0007.66,0001.87,0001.27
2022-04-24 21:40:00,,0828.0,5.02,0.00,25.5,24.6,00.0,34.4,27.2,15.6,0000.0,0007.48,0001.85,0001.28
2022-04-24 21:41:00,,0828.0,4.99,0.00,25.5,24.6,00.0,34.5,27.2,15.4,0000.0,0007.40,0001.89,0001.29
2022-04-24 21:42:00,,0828.1,4.99,0.00,25.5,24.6,00.0,34.5,27.2,15.3,0000.0,0006.76,0001.91,0001.31
2022-04-24 21:43:00,,0828.0,5.01,0.00,25.5,24.6,00.0,34.5,27.3,15.3,0000.0,0006.81,0001.88,0001.31
2022-04-24 21:44:00,,0828.0,5.01,0.00,25.5,24.6,00.0,34.5,27.3,15.0,0000.0,0007.32,0001.88,0001.31
2022-04-24 21:45:00,,0828.0,4.99,0.00,25.5,24.6,00.0,34.5,27.3,15.2,0000.0,0007.81,0001.93,0001.33
2022-04-24 21:46:00,,0828.0,4.99,0.00,25.6,24.5,00.0,34.5,27.3,15.0,0000.0,0007.83,0001.95,0001.33
2022-04-24 21:47:00,,0828.0,5.01,0.00,25.6,24.5,00.0,34.5,27.3,14.9,0000.0,0007.68,0001.88,0001.32
2022-04-24 21:48:00,,0828.1,4.99,0.00,25.6,24.6,00.0,34.5,27.3,15.1,0000.0,0005.69,0001.86,0001.33
2022-04-24 21:49:00,,0828.1,4.99,0.00,25.6,24.6,00.0,34.5,27.3,15.4,0000.0,0004.65,0001.82,0001.34
2022-04-24 21:50:00,,0828.1,5.02,0.00,25.6,24.6,00.0,34.5,27.3,15.1,0000.0,0004.51,0001.76,0001.32
2022-04-24 21:51:00,,0828.1,4.99,0.00,25.6,24.6,00.0,34.5,27.4,14.9,0000.0,0004.35,0001.73,0001.30
2022-04-24 21:52:00,,0828.1,5.00,0.00,25.6,24.6,00.0,34.5,27.4,15.1,0000.0,0004.42,0001.74,0001.30
2022-04-24 21:53:00,,0828.1,5.01,0.00,25.6,24.6,00.0,34.5,27.4,14.8,0000.0,0004.44,0001.71,0001.28
2022-04-24 21:54:00,,0828.2,5.01,0.00,25.7,24.6,00.0,34.5,27.4,14.3,0000.0,0004.27,0001.67,0001.28
2022-04-24 21:55:00,,0828.1,4.99,0.00,25.7,24.6,00.0,34.5,27.4,14.4,0000.0,0003.64,0001.68,0001.27
2022-04-24 21:56:00,,0828.1,4.99,0.00,25.7,24.6,00.0,34.6,27.4,14.4,0000.0,0002.90,0001.62,0001.25
2022-04-24 21:57:00,,0828.1,5.01,0.00,25.7,24.6,00.0,34.6,27.5,14.5,0000.0,0002.94,0001.61,0001.23
2022-04-24 21:58:00,,0828.2,5.00,0.00,25.7,24.7,00.0,34.6,27.5,14.6,0000.0,0002.91,0001.63,0001.21
2022-04-24 21:59:00,,0828.2,5.00,0.00,25.7,24.7,00.0,34.6,27.5,14.5,0000.0,0002.62,0001.58,0001.20
